Newark, NJ

7:24 PM EDT on September 21, 2017 (GMT -0400)
Newark International

Weather History for KEWR - March, 2013

Change the Weather History Date:

Saturday, March 9, 2013

  Actual Average Record
Temperature  
Mean Temperature 45 °F 40 °F  
Max Temperature 57 °F 48 °F 82 °F (2016)
Min Temperature 33 °F 32 °F 10 °F (1996)
Degree Days  
Heating Degree Days 20 25  
Month to date heating degree days 237 236  
Since 1 July heating degree days 3617 3871  
Cooling Degree Days 0 0  
Month to date cooling degree days 0 0  
Year to date cooling degree days 0 0  
Moisture  
Dew Point 23 °F    
Average Humidity 48    
Maximum Humidity 75    
Minimum Humidity 20    
Precipitation  
Precipitation 0.00 in 0.13 in 1.13 in (1998)
Month to date precipitation 1.15 1.12  
Year to date precipitation 7.49 7.54  
Snow  
Snow 0.00 in 0.20 in 5.20 in (1984)
Month to date snowfall 6.7 1.9  
Since 1 July snowfall 27.4 24.9  
Snow Depth 2.00 in    
Sea Level Pressure  
Sea Level Pressure 30.25 in    
Wind  
Wind Speed 9 mph (North)    
Max Wind Speed 17 mph    
Max Gust Speed 23 mph    
Visibility 10 miles    
Events      
T = Trace of Precipitation, MM = Missing Value Source: NWS Daily Summary

Daily Weather History Graph

Daily Weather History Graph

Search for Another Location

Airport or City:

Trip Planner

Search our weather history database for the weather conditions in past years. The results will help you decide how hot, cold, wet, or windy it might be!

Date:

Astronomy

Mar. 09, 2013 Rise Set
Actual Time 6:17 AM EST 5:57 PM EST
Civil Twilight 5:50 AM EST 6:24 PM EST
Nautical Twilight 5:18 AM EST 6:56 PM EST
Astronomical Twilight 4:46 AM EST 7:28 PM EST
Moon 4:40 AM EST (3/9) 3:55 PM EST (3/9)
Length of Visible Light 12h 34m
Length of Day
11h 39m
Waning Crescent, 5% of the Moon is Illuminated
Mar 9
Waning Crescent
Mar 11
New
Mar 19
First Quarter
Mar 27
Full
Apr 3
Last Quarter

Hourly Weather History & Observations

Time (EST) Temp. Windchill Dew Point Humidity Pressure Visibility Wind Dir Wind Speed Gust Speed Precip Events Conditions
12:51 AM 37.0 °F 29.3 °F 28.0 °F 70% 30.19 in 10.0 mi North 11.5 mph - N/A   Scattered Clouds
1:51 AM 36.0 °F 28.5 °F 28.0 °F 73% 30.19 in 10.0 mi NNW 10.4 mph - N/A   Partly Cloudy
2:51 AM 35.1 °F 26.9 °F 27.0 °F 72% 30.18 in 10.0 mi NNW 11.5 mph - N/A   Clear
3:51 AM 33.8 °F 25.8 °F 26.6 °F 75% 30.18 in 10.0 mi NNW 10.4 mph - N/A   Clear
4:51 AM 34.0 °F 25.5 °F 25.0 °F 70% 30.22 in 10.0 mi NNW 11.5 mph - N/A   Clear
5:51 AM 34.0 °F 25.0 °F 25.0 °F 70% 30.24 in 10.0 mi NNW 12.7 mph - N/A   Clear
6:51 AM 33.8 °F 26.4 °F 24.8 °F 70% 30.25 in 10.0 mi NNW 9.2 mph - N/A   Partly Cloudy
7:51 AM 37.0 °F 29.8 °F 24.1 °F 59% 30.26 in 10.0 mi NNW 10.4 mph - N/A   Partly Cloudy
8:51 AM 39.0 °F 32.8 °F 24.1 °F 55% 30.27 in 10.0 mi North 9.2 mph - N/A   Clear
9:51 AM 41.0 °F 33.5 °F 24.8 °F 53% 30.27 in 10.0 mi North 13.8 mph - N/A   Clear
10:51 AM 46.0 °F 39.0 °F 25.0 °F 44% 30.27 in 10.0 mi NNW 17.3 mph - N/A   Clear
11:51 AM 50.0 °F - 24.1 °F 36% 30.27 in 10.0 mi NNW 12.7 mph - N/A   Clear
12:51 PM 52.0 °F - 21.9 °F 31% 30.25 in 10.0 mi NNW 15.0 mph - N/A   Clear
1:51 PM 53.6 °F - 21.2 °F 28% 30.22 in 10.0 mi NNW 11.5 mph 17.3 mph N/A   Scattered Clouds
2:51 PM 55.0 °F - 18.0 °F 23% 30.23 in 10.0 mi NNW 6.9 mph - N/A   Scattered Clouds
3:51 PM 55.9 °F - 19.0 °F 24% 30.23 in 10.0 mi North 6.9 mph - N/A   Scattered Clouds
4:51 PM 55.0 °F - 15.1 °F 21% 30.23 in 10.0 mi North 11.5 mph - N/A   Partly Cloudy
5:51 PM 52.0 °F - 17.1 °F 25% 30.26 in 10.0 mi North 8.1 mph - N/A   Scattered Clouds
6:51 PM 48.9 °F - 16.0 °F 27% 30.27 in 10.0 mi North 5.8 mph - N/A   Partly Cloudy
7:51 PM 46.0 °F 42.5 °F 18.0 °F 33% 30.27 in 10.0 mi North 6.9 mph - N/A   Partly Cloudy
8:51 PM 48.0 °F - 16.0 °F 28% 30.29 in 10.0 mi East 3.5 mph - N/A   Partly Cloudy
9:51 PM 45.0 °F 43.5 °F 18.0 °F 34% 30.30 in 10.0 mi NNE 3.5 mph - N/A   Partly Cloudy
10:51 PM 43.0 °F 40.3 °F 27.0 °F 53% 30.31 in 10.0 mi SE 4.6 mph - N/A   Partly Cloudy
11:51 PM 39.9 °F - 32.0 °F 73% 30.32 in 10.0 mi Calm Calm - N/A   Partly Cloudy